| time (UTC) | temp C | wind direction | speed KPH | gust KPH | rain 1hr cm | rain 24hr cm | rain mn cm | humidity % | barometer mb |
| 20260506092356 | 17 | 0.0 | 0.0 | 0.00 | 0.00 | 0.00 | 49 | 1006.8 | |
| 20260506091856 | 18 | 0.0 | 0.0 | 0.00 | 0.00 | 0.00 | 47 | 1006.7 | |
| 20260506091356 | 19 | 0.0 | 0.0 | 0.00 | 0.00 | 0.00 | 47 | 1006.7 | |
| 20260506090856 | 20 | 0.0 | 0.0 | 0.00 | 0.00 | 0.00 | 46 | 1006.6 | |
| 20260506090356 | 20 | 0.0 | 0.0 | 0.00 | 0.00 | 0.00 | 47 | 1006.6 | |
| 20260506085856 | 18 | 0.0 | 0.0 | 0.00 | 0.00 | 0.00 | 48 | 1006.5 | |
| 20260506085356 | 17 | 0.0 | 0.0 | 0.00 | 0.00 | 0.00 | 47 | 1006.5 | |
| 20260506084856 | 19 | 0.0 | 0.0 | 0.00 | 0.00 | 0.00 | 46 | 1006.5 | |
| 20260506084356 | 20 | 0.0 | 0.0 | 0.00 | 0.00 | 0.00 | 45 | 1006.7 | |
| 20260506083856 | 21 | 0.0 | 0.0 | 0.00 | 0.00 | 0.00 | 45 | 1006.6 | |
| 20260506083356 | 21 | 0.0 | 0.0 | 0.00 | 0.00 | 0.00 | 46 | 1006.7 | |
| 20260506082856 | 20 | 0.0 | 0.0 | 0.00 | 0.00 | 0.00 | 46 | 1006.6 | |
| 20260506082356 | 20 | 0.0 | 0.0 | 0.00 | 0.00 | 0.00 | 46 | 1006.6 | |
| 20260506081856 | 21 | 0.0 | 0.0 | 0.00 | 0.00 | 0.00 | 46 | 1006.5 | |
| 20260506081356 | 21 | 0.0 | 0.0 | 0.00 | 0.00 | 0.00 | 46 | 1006.5 | |
| 20260506080856 | 20 | 0.0 | 0.0 | 0.00 | 0.00 | 0.00 | 46 | 1006.6 | |
| 20260506080356 | 20 | 0.0 | 0.0 | 0.00 | 0.00 | 0.00 | 46 | 1006.5 | |
| 20260506073356 | 20 | 0.0 | 0.0 | 0.00 | 0.00 | 0.00 | 46 | 1006.6 | |
| 20260506072856 | 21 | 0.0 | 0.0 | 0.00 | 0.00 | 0.00 | 46 | 1006.6 | |
| 20260506072356 | 21 | 0.0 | 0.0 | 0.00 | 0.00 | 0.00 | 46 | 1006.6 | |
| 20260506071856 | 21 | 0.0 | 0.0 | 0.00 | 0.00 | 0.00 | 46 | 1006.6 | |
| 20260506071356 | 20 | 0.0 | 0.0 | 0.00 | 0.00 | 0.00 | 47 | 1006.6 | |
| 20260506070856 | 21 | 0.0 | 0.0 | 0.00 | 0.00 | 0.00 | 47 | 1006.6 | |
| 20260506070356 | 21 | 0.0 | 0.0 | 0.00 | 0.00 | 0.00 | 47 | 1006.6 | |
| 20260506062356 | 16 | 0.0 | 0.0 | 0.00 | 0.00 | 0.00 | 52 | 1006.6 | |
| 20260506061856 | 17 | 0.0 | 0.0 | 0.00 | 0.00 | 0.00 | 52 | 1006.6 | |
| 20260506061356 | 16 | 0.0 | 0.0 | 0.00 | 0.00 | 0.00 | 53 | 1006.7 | |
| 20260506060856 | 15 | 0.0 | 0.0 | 0.00 | 0.00 | 0.00 | 54 | 1006.6 | |
| 20260506060356 | 14 | 0.0 | 0.0 | 0.00 | 0.00 | 0.00 | 54 | 1006.6 | |
| 20260506051356 | 12 | 0.0 | 0.0 | 0.00 | 0.00 | 0.00 | 54 | 1006.8 | |
| 20260506050856 | 12 | 0.0 | 0.0 | 0.00 | 0.00 | 0.00 | 54 | 1006.9 | |
| 20260506050356 | 12 | 0.0 | 0.0 | 0.00 | 0.00 | 0.00 | 54 | 1006.8 | |
| 20260506044856 | 12 | 0.0 | 0.0 | 0.00 | 0.00 | 0.00 | 54 | 1006.8 | |
| 20260506044356 | 13 | 0.0 | 0.0 | 0.00 | 0.00 | 0.00 | 53 | 1006.8 | |
| 20260506043856 | 13 | 0.0 | 0.0 | 0.00 | 0.00 | 0.00 | 53 | 1006.7 | |
| 20260506043356 | 13 | 0.0 | 0.0 | 0.00 | 0.00 | 0.00 | 53 | 1006.8 | |
| 20260506042856 | 13 | 0.0 | 0.0 | 0.00 | 0.00 | 0.00 | 53 | 1006.8 | |
| 20260506042356 | 13 | 0.0 | 0.0 | 0.00 | 0.00 | 0.00 | 52 | 1006.8 | |
| 20260506041856 | 13 | 0.0 | 0.0 | 0.00 | 0.00 | 0.00 | 52 | 1006.8 | |
| 20260506041356 | 13 | 0.0 | 0.0 | 0.00 | 0.00 | 0.00 | 52 | 1006.8 | |
| 20260506040856 | 14 | 0.0 | 0.0 | 0.00 | 0.00 | 0.00 | 51 | 1006.9 | |
| 20260506040356 | 14 | 0.0 | 0.0 | 0.00 | 0.00 | 0.00 | 52 | 1006.9 | |
| 20260506035856 | 13 | 0.0 | 0.0 | 0.00 | 0.00 | 0.00 | 52 | 1007.0 | |
| 20260506035356 | 14 | 0.0 | 0.0 | 0.00 | 0.00 | 0.00 | 51 | 1007.1 | |
| 20260506034856 | 15 | 0.0 | 0.0 | 0.00 | 0.00 | 0.00 | 50 | 1007.2 | |
| 20260506034356 | 16 | 0.0 | 0.0 | 0.00 | 0.00 | 0.00 | 49 | 1007.3 | |
| 20260506033856 | 17 | 0.0 | 0.0 | 0.00 | 0.00 | 0.00 | 48 | 1007.2 | |
| 20260506033356 | 19 | 0.0 | 0.0 | 0.00 | 0.00 | 0.00 | 48 | 1007.1 | |
| 20260506032856 | 18 | 0.0 | 0.0 | 0.00 | 0.00 | 0.00 | 48 | 1007.3 | |
| 20260506032356 | 16 | 0.0 | 0.0 | 0.00 | 0.00 | 0.00 | 51 | 1007.4 | |
| 20260506031856 | 13 | 0.0 | 0.0 | 0.00 | 0.00 | 0.00 | 52 | 1007.5 | |
| 20260506031356 | 13 | 0.0 | 0.0 | 0.00 | 0.00 | 0.00 | 52 | 1007.6 | |
| 20260506030856 | 12 | 0.0 | 0.0 | 0.00 | 0.00 | 0.00 | 52 | 1007.6 | |
| 20260506030356 | 13 | 0.0 | 0.0 | 0.00 | 0.00 | 0.00 | 52 | 1007.6 | |
| 20260506025856 | 13 | 0.0 | 0.0 | 0.00 | 0.00 | 0.00 | 51 | 1007.7 | |
| 20260506025356 | 13 | 0.0 | 0.0 | 0.00 | 0.00 | 0.00 | 51 | 1007.7 | |
| 20260506024856 | 13 | 0.0 | 0.0 | 0.00 | 0.00 | 0.00 | 50 | 1007.7 | |
| 20260506024356 | 14 | 0.0 | 0.0 | 0.00 | 0.00 | 0.00 | 50 | 1007.7 | |
| 20260506023856 | 16 | 0.0 | 0.0 | 0.00 | 0.00 | 0.00 | 48 | 1007.7 | |
| 20260506023356 | 16 | 0.0 | 0.0 | 0.00 | 0.00 | 0.00 | 48 | 1007.8 | |
| 20260506022856 | 17 | 0.0 | 0.0 | 0.00 | 0.00 | 0.00 | 48 | 1007.8 | |
| 20260506022356 | 15 | 0.0 | 0.0 | 0.00 | 0.00 | 0.00 | 49 | 1007.9 | |
| 20260506021856 | 14 | 0.0 | 0.0 | 0.00 | 0.00 | 0.00 | 50 | 1008.0 | |
| 20260506021356 | 13 | 0.0 | 0.0 | 0.00 | 0.00 | 0.00 | 49 | 1008.0 | |
| 20260506021049 | 13 | 0.0 | 0.0 | 0.00 | 0.00 | 0.00 | 49 | 1008.2 | |
| 20260506015856 | 13 | 0.0 | 0.0 | 0.00 | 0.00 | 0.00 | 49 | 1008.2 | |
| 20260506015356 | 14 | 0.0 | 0.0 | 0.00 | 0.00 | 0.00 | 47 | 1008.2 | |
| 20260506014856 | 15 | 0.0 | 0.0 | 0.00 | 0.00 | 0.00 | 47 | 1008.2 | |
| 20260506014356 | 17 | 0.0 | 0.0 | 0.00 | 0.00 | 0.00 | 45 | 1008.2 | |
| 20260506013856 | 18 | 0.0 | 0.0 | 0.00 | 0.00 | 0.00 | 44 | 1008.2 | |
| 20260506013356 | 17 | 0.0 | 0.0 | 0.00 | 0.00 | 0.00 | 45 | 1008.3 | |
| 20260506012856 | 16 | 0.0 | 0.0 | 0.00 | 0.00 | 0.00 | 45 | 1008.3 | |
| 20260506012356 | 18 | 0.0 | 0.0 | 0.00 | 0.00 | 0.00 | 43 | 1008.3 | |
| 20260506011856 | 21 | 0.0 | 0.0 | 0.00 | 0.00 | 0.00 | 41 | 1008.3 | |
| 20260506011356 | 23 | 0.0 | 0.0 | 0.00 | 0.00 | 0.00 | 39 | 1008.2 | |
| 20260506010856 | 24 | 0.0 | 0.0 | 0.00 | 0.00 | 0.00 | 39 | 1008.2 | |
| 20260506010356 | 25 | 0.0 | 0.0 | 0.00 | 0.00 | 0.00 | 38 | 1008.2 | |
| 20260506005856 | 25 | 0.0 | 0.0 | 0.00 | 0.00 | 0.00 | 39 | 1008.2 | |
| 20260506005356 | 25 | 0.0 | 0.0 | 0.00 | 0.00 | 0.00 | 39 | 1008.3 | |
| 20260506004856 | 25 | 0.0 | 0.0 | 0.00 | 0.00 | 0.00 | 39 | 1008.4 | |
| 20260506004356 | 25 | 0.0 | 0.0 | 0.00 | 0.00 | 0.00 | 39 | 1008.4 | |
| 20260506003856 | 25 | 0.0 | 0.0 | 0.00 | 0.00 | 0.00 | 39 | 1008.4 | |
| 20260506003356 | 24 | 0.0 | 0.0 | 0.00 | 0.00 | 0.00 | 39 | 1008.5 | |
| 20260506002856 | 24 | 0.0 | 0.0 | 0.00 | 0.00 | 0.00 | 39 | 1008.6 | |
| 20260506002356 | 24 | 0.0 | 0.0 | 0.00 | 0.00 | 0.00 | 39 | 1008.6 | |
| 20260506001856 | 24 | 0.0 | 0.0 | 0.00 | 0.00 | 0.00 | 39 | 1008.7 | |
| 20260506001356 | 24 | 0.0 | 0.0 | 0.00 | 0.00 | 0.00 | 39 | 1008.8 | |
| 20260506000856 | 23 | 0.0 | 0.0 | 0.00 | 0.00 | 0.00 | 39 | 1008.9 | |
| 20260506000356 | 23 | 0.0 | 0.0 | 0.00 | 0.00 | 0.00 | 39 | 1009.0 | |
| 20260505235856 | 25 | 0.0 | 0.0 | 0.00 | 0.00 | 0.00 | 38 | 1008.9 | |
| 20260505235356 | 25 | 0.0 | 0.0 | 0.00 | 0.00 | 0.00 | 38 | 1008.9 | |
| 20260505234856 | 25 | 0.0 | 0.0 | 0.00 | 0.00 | 0.00 | 39 | 1008.9 | |
| 20260505234356 | 25 | 0.0 | 0.0 | 0.00 | 0.00 | 0.00 | 39 | 1008.9 | |
| 20260505233856 | 25 | 0.0 | 0.0 | 0.00 | 0.00 | 0.00 | 39 | 1008.9 | |
| 20260505233356 | 25 | 0.0 | 0.0 | 0.00 | 0.00 | 0.00 | 39 | 1008.9 | |
| 20260505232856 | 23 | 0.0 | 0.0 | 0.00 | 0.00 | 0.00 | 40 | 1009.0 | |
| 20260505232356 | 22 | 0.0 | 0.0 | 0.00 | 0.00 | 0.00 | 40 | 1009.1 | |
| 20260505231856 | 22 | 0.0 | 0.0 | 0.00 | 0.00 | 0.00 | 40 | 1009.2 | |
| 20260505231356 | 24 | 0.0 | 0.0 | 0.00 | 0.00 | 0.00 | 39 | 1009.1 | |
| 20260505230856 | 24 | 0.0 | 0.0 | 0.00 | 0.00 | 0.00 | 39 | 1009.2 | |
| 20260505230356 | 24 | 0.0 | 0.0 | 0.00 | 0.00 | 0.00 | 39 | 1009.1 | |
| 20260505225856 | 24 | 0.0 | 0.0 | 0.00 | 0.00 | 0.00 | 39 | 1009.2 | |
| 20260505225356 | 24 | 0.0 | 0.0 | 0.00 | 0.00 | 0.00 | 39 | 1009.1 | |
| 20260505224519 | 23 | 0.0 | 0.0 | 0.00 | 0.00 | 0.00 | 39 | 1009.2 | |
| 20260505224019 | 23 | 0.0 | 0.0 | 0.00 | 0.00 | 0.00 | 40 | 1009.1 | |
| 20260505223519 | 23 | 0.0 | 0.0 | 0.00 | 0.00 | 0.00 | 40 | 1009.2 | |
| 20260505223019 | 23 | 0.0 | 0.0 | 0.00 | 0.00 | 0.00 | 40 | 1009.2 | |
| 20260505222519 | 23 | 0.0 | 0.0 | 0.00 | 0.00 | 0.00 | 40 | 1009.1 | |
| 20260505222019 | 23 | 0.0 | 0.0 | 0.00 | 0.00 | 0.00 | 40 | 1009.2 | |
| 20260505221519 | 25 | 0.0 | 0.0 | 0.00 | 0.00 | 0.00 | 39 | 1009.3 | |
| 20260505221019 | 25 | 0.0 | 0.0 | 0.00 | 0.00 | 0.00 | 39 | 1009.1 | |
| 20260505220519 | 25 | 0.0 | 0.0 | 0.00 | 0.00 | 0.00 | 39 | 1009.2 | |
| 20260505220019 | 24 | 0.0 | 0.0 | 0.00 | 0.00 | 0.00 | 39 | 1009.2 | |
| 20260505215519 | 25 | 0.0 | 0.0 | 0.00 | 0.00 | 0.00 | 39 | 1009.4 | |
| 20260505215019 | 25 | 0.0 | 0.0 | 0.00 | 0.00 | 0.00 | 40 | 1009.4 | |
| 20260505214519 | 24 | 0.0 | 0.0 | 0.00 | 0.00 | 0.00 | 40 | 1009.6 | |
| 20260505214019 | 24 | 0.0 | 0.0 | 0.00 | 0.00 | 0.00 | 40 | 1009.7 | |
| 20260505213519 | 24 | 0.0 | 0.0 | 0.00 | 0.00 | 0.00 | 40 | 1009.8 | |
| 20260505213019 | 24 | 0.0 | 0.0 | 0.00 | 0.00 | 0.00 | 40 | 1009.7 | |
| 20260505212519 | 24 | 0.0 | 0.0 | 0.00 | 0.00 | 0.00 | 40 | 1009.8 | |
| 20260505212019 | 24 | 0.0 | 0.0 | 0.00 | 0.00 | 0.00 | 40 | 1009.8 | |
| 20260505211519 | 24 | 0.0 | 0.0 | 0.00 | 0.00 | 0.00 | 40 | 1009.9 | |
| 20260505211019 | 25 | 0.0 | 0.0 | 0.00 | 0.00 | 0.00 | 40 | 1009.9 | |
| 20260505210519 | 24 | 0.0 | 0.0 | 0.00 | 0.00 | 0.00 | 40 | 1009.9 | |
| 20260505210019 | 24 | 0.0 | 0.0 | 0.00 | 0.00 | 0.00 | 40 | 1009.8 | |
| 20260505205519 | 24 | 0.0 | 0.0 | 0.00 | 0.00 | 0.00 | 40 | 1009.9 | |
| 20260505205019 | 25 | 0.0 | 0.0 | 0.00 | 0.00 | 0.00 | 39 | 1009.8 | |
| 20260505204519 | 25 | 0.0 | 0.0 | 0.00 | 0.00 | 0.00 | 40 | 1009.8 | |
| 20260505204019 | 25 | 0.0 | 0.0 | 0.00 | 0.00 | 0.00 | 40 | 1009.9 | |
| 20260505203519 | 25 | 0.0 | 0.0 | 0.00 | 0.00 | 0.00 | 40 | 1009.8 | |
| 20260505203019 | 24 | 0.0 | 0.0 | 0.00 | 0.00 | 0.00 | 40 | 1009.8 | |
| 20260505202519 | 25 | 0.0 | 0.0 | 0.00 | 0.00 | 0.00 | 40 | 1009.8 | |
| 20260505202019 | 25 | 0.0 | 0.0 | 0.00 | 0.00 | 0.00 | 40 | 1009.8 | |
| 20260505201519 | 25 | 0.0 | 0.0 | 0.00 | 0.00 | 0.00 | 40 | 1009.8 | |
| 20260505201019 | 25 | 0.0 | 0.0 | 0.00 | 0.00 | 0.00 | 40 | 1009.8 | |
| 20260505200519 | 25 | 0.0 | 0.0 | 0.00 | 0.00 | 0.00 | 40 | 1009.7 | |
| 20260505200019 | 24 | 0.0 | 0.0 | 0.00 | 0.00 | 0.00 | 40 | 1009.6 | |
| 20260505195519 | 23 | 0.0 | 0.0 | 0.00 | 0.00 | 0.00 | 41 | 1009.5 | |
| 20260505195019 | 22 | 0.0 | 0.0 | 0.00 | 0.00 | 0.00 | 41 | 1009.3 | |
| 20260505194519 | 25 | 0.0 | 0.0 | 0.00 | 0.00 | 0.00 | 40 | 1009.3 | |
| 20260505194019 | 25 | 0.0 | 0.0 | 0.00 | 0.00 | 0.00 | 40 | 1009.2 | |
| 20260505193519 | 25 | 0.0 | 0.0 | 0.00 | 0.00 | 0.00 | 41 | 1009.2 | |
| 20260505193019 | 24 | 0.0 | 0.0 | 0.00 | 0.00 | 0.00 | 41 | 1009.2 | |
| 20260505192519 | 24 | 0.0 | 0.0 | 0.00 | 0.00 | 0.00 | 41 | 1009.2 | |
| 20260505192019 | 23 | 0.0 | 0.0 | 0.00 | 0.00 | 0.00 | 42 | 1009.2 | |
| 20260505191519 | 23 | 0.0 | 0.0 | 0.00 | 0.00 | 0.00 | 42 | 1009.2 | |
| 20260505191019 | 23 | 0.0 | 0.0 | 0.00 | 0.00 | 0.00 | 42 | 1009.1 | |
| 20260505190519 | 23 | 0.0 | 0.0 | 0.00 | 0.00 | 0.00 | 41 | 1009.1 | |
| 20260505190019 | 23 | 0.0 | 0.0 | 0.00 | 0.00 | 0.00 | 41 | 1009.0 | |
| 20260505185519 | 24 | 0.0 | 0.0 | 0.00 | 0.00 | 0.00 | 41 | 1009.0 | |
| 20260505185019 | 24 | 0.0 | 0.0 | 0.00 | 0.00 | 0.00 | 41 | 1008.9 | |
| 20260505184519 | 23 | 0.0 | 0.0 | 0.00 | 0.00 | 0.00 | 41 | 1008.9 | |
| 20260505184019 | 24 | 0.0 | 0.0 | 0.00 | 0.00 | 0.00 | 41 | 1008.8 | |
| 20260505183519 | 25 | 0.0 | 0.0 | 0.00 | 0.00 | 0.00 | 41 | 1008.9 | |
| 20260505183019 | 25 | 0.0 | 0.0 | 0.00 | 0.00 | 0.00 | 41 | 1008.9 | |
| 20260505182519 | 25 | 0.0 | 0.0 | 0.00 | 0.00 | 0.00 | 40 | 1009.0 | |
| 20260505182019 | 26 | 0.0 | 0.0 | 0.00 | 0.00 | 0.00 | 40 | 1009.0 | |
| 20260505181519 | 25 | 0.0 | 0.0 | 0.00 | 0.00 | 0.00 | 41 | 1009.0 | |
| 20260505181019 | 26 | 0.0 | 0.0 | 0.00 | 0.00 | 0.00 | 41 | 1009.1 | |
| 20260505180519 | 25 | 0.0 | 0.0 | 0.00 | 0.00 | 0.00 | 41 | 1009.0 | |
| 20260505180019 | 25 | 0.0 | 0.0 | 0.00 | 0.00 | 0.00 | 41 | 1008.9 | |
| 20260505175519 | 25 | 0.0 | 0.0 | 0.00 | 0.00 | 0.00 | 41 | 1009.0 | |
| 20260505175019 | 25 | 0.0 | 0.0 | 0.00 | 0.00 | 0.00 | 41 | 1009.2 | |
| 20260505174519 | 25 | 0.0 | 0.0 | 0.00 | 0.00 | 0.00 | 42 | 1009.1 | |
| 20260505174019 | 25 | 0.0 | 0.0 | 0.00 | 0.00 | 0.00 | 42 | 1009.1 | |
| 20260505173519 | 25 | 0.0 | 0.0 | 0.00 | 0.00 | 0.00 | 42 | 1009.1 | |
| 20260505173019 | 25 | 0.0 | 0.0 | 0.00 | 0.00 | 0.00 | 42 | 1009.1 | |
| 20260505172519 | 25 | 0.0 | 0.0 | 0.00 | 0.00 | 0.00 | 42 | 1009.0 | |
| 20260505172019 | 24 | 0.0 | 0.0 | 0.00 | 0.00 | 0.00 | 43 | 1009.0 | |
| 20260505171519 | 21 | 0.0 | 0.0 | 0.00 | 0.00 | 0.00 | 46 | 1009.1 | |
| 20260505171019 | 20 | 0.0 | 0.0 | 0.00 | 0.00 | 0.00 | 47 | 1009.0 | |
| 20260505170519 | 21 | 0.0 | 0.0 | 0.00 | 0.00 | 0.00 | 47 | 1009.1 | |
| 20260505170019 | 17 | 0.0 | 0.0 | 0.00 | 0.00 | 0.00 | 49 | 1009.2 | |
| 20260505165519 | 18 | 0.0 | 0.0 | 0.00 | 0.00 | 0.00 | 48 | 1009.0 | |
| 20260505165019 | 23 | 0.0 | 0.0 | 0.00 | 0.00 | 0.00 | 43 | 1008.9 | |
| 20260505164519 | 23 | 0.0 | 0.0 | 0.00 | 0.00 | 0.00 | 44 | 1008.7 | |
| 20260505164019 | 21 | 0.0 | 0.0 | 0.00 | 0.00 | 0.00 | 47 | 1008.9 | |
| 20260505163519 | 20 | 0.0 | 0.0 | 0.00 | 0.00 | 0.00 | 47 | 1009.0 | |
| 20260505163019 | 21 | 0.0 | 0.0 | 0.00 | 0.00 | 0.00 | 45 | 1008.9 | |
| 20260505162519 | 22 | 0.0 | 0.0 | 0.00 | 0.00 | 0.00 | 47 | 1009.0 | |
| 20260505162019 | 18 | 0.0 | 0.0 | 0.00 | 0.00 | 0.00 | 49 | 1009.1 | |
| 20260505161519 | 16 | 0.0 | 0.0 | 0.00 | 0.00 | 0.00 | 51 | 1009.0 | |
| 20260505161019 | 16 | 0.0 | 0.0 | 0.00 | 0.00 | 0.00 | 50 | 1008.9 | |
| 20260505160519 | 16 | 0.0 | 0.0 | 0.00 | 0.00 | 0.00 | 51 | 1008.9 | |
| 20260505153019 | 20 | 0.0 | 0.0 | 0.00 | 0.00 | 0.00 | 47 | 1008.5 | |
| 20260505152519 | 21 | 0.0 | 0.0 | 0.00 | 0.00 | 0.00 | 45 | 1008.5 | |
| 20260505152019 | 20 | 0.0 | 0.0 | 0.00 | 0.00 | 0.00 | 47 | 1008.5 | |
| 20260505151519 | 20 | 0.0 | 0.0 | 0.00 | 0.00 | 0.00 | 45 | 1008.4 | |
| 20260505151019 | 19 | 0.0 | 0.0 | 0.00 | 0.00 | 0.00 | 46 | 1008.4 | |
| 20260505150519 | 18 | 0.0 | 0.0 | 0.00 | 0.00 | 0.00 | 47 | 1008.4 | |
| 20260505140519 | 24 | 0.0 | 0.0 | 0.00 | 0.00 | 0.00 | 42 | 1008.3 | |
| 20260505125019 | 23 | 0.0 | 0.0 | 0.00 | 0.00 | 0.00 | 42 | 1008.6 | |
| 20260505124519 | 23 | 0.0 | 0.0 | 0.00 | 0.00 | 0.00 | 42 | 1008.6 | |
| 20260505124019 | 23 | 0.0 | 0.0 | 0.00 | 0.00 | 0.00 | 42 | 1008.6 | |
| 20260505123519 | 23 | 0.0 | 0.0 | 0.00 | 0.00 | 0.00 | 42 | 1008.6 | |
| 20260505123019 | 23 | 0.0 | 0.0 | 0.00 | 0.00 | 0.00 | 42 | 1008.6 | |
| 20260505122519 | 22 | 0.0 | 0.0 | 0.00 | 0.00 | 0.00 | 42 | 1008.7 | |
| 20260505122019 | 23 | 0.0 | 0.0 | 0.00 | 0.00 | 0.00 | 42 | 1008.7 | |
| 20260505121519 | 22 | 0.0 | 0.0 | 0.00 | 0.00 | 0.00 | 42 | 1008.8 | |
| 20260505121019 | 22 | 0.0 | 0.0 | 0.00 | 0.00 | 0.00 | 43 | 1008.8 | |
| 20260505120519 | 22 | 0.0 | 0.0 | 0.00 | 0.00 | 0.00 | 43 | 1008.8 | |
| 20260505120019 | 22 | 0.0 | 0.0 | 0.00 | 0.00 | 0.00 | 42 | 1008.8 | |
| 20260505115519 | 22 | 0.0 | 0.0 | 0.00 | 0.00 | 0.00 | 42 | 1008.9 | |
| 20260505115019 | 22 | 0.0 | 0.0 | 0.00 | 0.00 | 0.00 | 42 | 1008.8 | |
| 20260505114519 | 23 | 0.0 | 0.0 | 0.00 | 0.00 | 0.00 | 42 | 1008.8 | |
| 20260505114019 | 22 | 0.0 | 0.0 | 0.00 | 0.00 | 0.00 | 43 | 1008.8 | |
| 20260505113519 | 22 | 0.0 | 0.0 | 0.00 | 0.00 | 0.00 | 43 | 1008.8 | |
| 20260505113019 | 22 | 0.0 | 0.0 | 0.00 | 0.00 | 0.00 | 43 | 1008.8 | |
| 20260505112519 | 21 | 0.0 | 0.0 | 0.00 | 0.00 | 0.00 | 44 | 1008.8 | |
| 20260505112019 | 21 | 0.0 | 0.0 | 0.00 | 0.00 | 0.00 | 44 | 1008.8 | |
| 20260505111519 | 21 | 0.0 | 0.0 | 0.00 | 0.00 | 0.00 | 44 | 1008.8 | |
| 20260505111019 | 20 | 0.0 | 0.0 | 0.00 | 0.00 | 0.00 | 44 | 1008.9 | |
| 20260505110519 | 21 | 0.0 | 0.0 | 0.00 | 0.00 | 0.00 | 44 | 1008.8 | |
| 20260505102019 | 20 | 0.0 | 0.0 | 0.00 | 0.00 | 0.00 | 44 | 1009.0 | |
| 20260505101519 | 20 | 0.0 | 0.0 | 0.00 | 0.00 | 0.00 | 43 | 1009.0 | |
| 20260505101019 | 21 | 0.0 | 0.0 | 0.00 | 0.00 | 0.00 | 43 | 1008.9 | |
| 20260505100519 | 23 | 0.0 | 0.0 | 0.00 | 0.00 | 0.00 | 42 | 1009.0 | |
| 20260505100019 | 23 | 0.0 | 0.0 | 0.00 | 0.00 | 0.00 | 42 | 1008.9 | |
| 20260505095519 | 23 | 0.0 | 0.0 | 0.00 | 0.00 | 0.00 | 41 | 1008.9 | |
| 20260505095019 | 22 | 0.0 | 0.0 | 0.00 | 0.00 | 0.00 | 42 | 1009.0 | |
| 20260505094519 | 21 | 0.0 | 0.0 | 0.00 | 0.00 | 0.00 | 43 | 1008.9 | |
| 20260505094019 | 22 | 0.0 | 0.0 | 0.00 | 0.00 | 0.00 | 42 | 1009.0 | |
| 20260505093519 | 22 | 0.0 | 0.0 | 0.00 | 0.00 | 0.00 | 43 | 1009.0 | |
| 20260505093019 | 21 | 0.0 | 0.0 | 0.00 | 0.00 | 0.00 | 43 | 1008.9 |